Weather History for KDYT - March, 2014

Change the Weather History Date:

Wednesday, March 12, 2014

  Actual Average Record
Temperature  
Mean Temperature 19 °F -  
Max Temperature 28 °F 32 °F 48 °F (1957)
Min Temperature 10 °F 17 °F -14 °F (1950)
Degree Days  
Heating Degree Days 46    
Moisture  
Dew Point 9 °F    
Average Humidity 75    
Maximum Humidity 86    
Minimum Humidity 62    
Precipitation  
Precipitation 0.00 in - - ()
Sea Level Pressure  
Sea Level Pressure 30.12 in    
Wind  
Wind Speed 9 mph (ENE)    
Max Wind Speed 28 mph    
Max Gust Speed 25 mph    
Visibility 8 miles    
Events Snow    
Averages and records for this station are not official NWS values.
T = Trace of Precipitation, MM = Missing Value Source: NWS Daily Summary

Daily Weather History Graph

Daily Weather History Graph

Search for Another Location

Airport or City:

Trip Planner

Search our weather history database for the weather conditions in past years. The results will help you decide how hot, cold, wet, or windy it might be!

Date:

Astronomy

Mar. 12, 2014 Rise Set
Actual Time 7:26 AM CDT 7:09 PM CDT
Civil Twilight 6:56 AM CDT 7:39 PM CDT
Nautical Twilight 6:21 AM CDT 8:15 PM CDT
Astronomical Twilight 5:45 AM CDT 8:50 PM CDT
Moon 3:30 PM CDT (3/12) 5:09 AM CDT (3/12)
Length of Visible Light 12h 43m
Length of Day
11h 42m
Waxing Gibbous, 85% of the Moon is Illuminated
Mar 12
Waxing Gibbous
Mar 16
Full
Mar 23
Last Quarter
Mar 30
New
Apr 7
First Quarter

Hourly Weather History & Observations

Time (CDT) Temp. Windchill Dew Point Humidity Pressure Visibility Wind Dir Wind Speed Gust Speed Precip Events Conditions
12:13 AM 28.4 °F - 17.6 °F 64% 30.04 in 10.0 mi Calm Calm - N/A   Overcast
12:33 AM 28.4 °F 23.3 °F 17.6 °F 64% 30.04 in 10.0 mi North 4.6 mph - N/A   Overcast
12:54 AM 28.4 °F 16.2 °F 19.4 °F 69% 30.04 in 10.0 mi NNE 17.3 mph - N/A   Overcast
1:13 AM 26.6 °F 12.7 °F 21.2 °F 80% 30.05 in 4.0 mi NE 20.7 mph - N/A   Overcast
1:34 AM 23.0 °F 6.6 °F 19.4 °F 86% 30.05 in 0.5 mi ENE 25.3 mph - N/A Snow Snow
1:53 AM 23.0 °F 6.0 °F 19.4 °F 86% 30.06 in 0.8 mi ENE 27.6 mph - N/A Snow Snow
2:13 AM 21.2 °F 4.2 °F 17.6 °F 86% 30.08 in 1.8 mi ENE 25.3 mph - N/A Snow Light Snow
2:34 AM 21.2 °F 4.5 °F 17.6 °F 86% 30.09 in 3.0 mi ENE 24.2 mph - N/A Snow Light Snow
2:53 AM 19.4 °F 2.5 °F 15.8 °F 86% 30.10 in 4.0 mi ENE 23.0 mph - N/A   Overcast
3:13 AM 19.4 °F 3.6 °F 15.8 °F 86% 30.10 in 3.0 mi ENE 19.6 mph - N/A   Haze
3:34 AM 19.4 °F 3.2 °F 12.2 °F 74% 30.11 in 7.0 mi ENE 20.7 mph - N/A   Overcast
3:53 AM 17.6 °F 1.3 °F 12.2 °F 79% 30.11 in 7.0 mi ENE 19.6 mph - N/A   Overcast
4:13 AM 17.6 °F 0.9 °F 12.2 °F 79% 30.11 in 5.0 mi ENE 20.7 mph 25.3 mph N/A   Haze
4:34 AM 17.6 °F 0.9 °F 10.4 °F 73% 30.11 in 7.0 mi ENE 20.7 mph 25.3 mph N/A   Overcast
4:53 AM 17.6 °F 1.3 °F 10.4 °F 73% 30.12 in 5.0 mi East 19.6 mph 23.0 mph N/A   Haze
5:14 AM 17.6 °F 1.7 °F 10.4 °F 73% 30.13 in 5.0 mi ENE 18.4 mph 23.0 mph N/A   Haze
5:33 AM 15.8 °F 0.9 °F 10.4 °F 79% 30.13 in 5.0 mi East 15.0 mph - N/A Snow Light Snow
5:53 AM 15.8 °F 0.3 °F 10.4 °F 79% 30.13 in 7.0 mi ENE 16.1 mph 20.7 mph N/A   Overcast
6:14 AM 15.8 °F -1.1 °F 10.4 °F 79% 30.14 in 5.0 mi ENE 19.6 mph - N/A   Haze
6:33 AM 15.8 °F -0.2 °F 8.6 °F 73% 30.14 in 4.0 mi East 17.3 mph 21.9 mph N/A Snow Light Snow
6:53 AM 15.8 °F -0.6 °F 8.6 °F 73% 30.14 in 4.0 mi East 18.4 mph - N/A Snow Light Snow
7:14 AM 14.0 °F 2.0 °F 8.6 °F 79% 30.15 in 7.0 mi East 9.2 mph 17.3 mph N/A   Overcast
7:33 AM 14.0 °F 2.9 °F 6.8 °F 73% 30.16 in 5.0 mi East 8.1 mph 18.4 mph N/A Snow Light Snow
7:53 AM 12.2 °F - 6.8 °F 79% 30.16 in 4.0 mi Calm Calm - N/A Snow Light Snow
8:14 AM 12.2 °F 1.7 °F 5.0 °F 73% 30.17 in 5.0 mi East 6.9 mph - N/A Snow Light Snow
8:33 AM 12.2 °F - 6.8 °F 79% 30.18 in 4.0 mi Calm Calm - N/A Snow Light Snow
8:53 AM 12.2 °F - 6.8 °F 79% 30.19 in 2.5 mi Calm Calm - N/A Snow Light Snow
9:14 AM 12.2 °F - 6.8 °F 79% 30.20 in 1.5 mi Calm Calm - N/A Snow Light Snow
9:33 AM 12.2 °F - 6.8 °F 79% 30.19 in 1.8 mi Calm Calm - N/A Snow Light Snow
9:53 AM 12.2 °F - 6.8 °F 79% 30.19 in 2.0 mi Calm Calm - N/A Snow Light Snow
10:14 AM 12.2 °F 4.3 °F 6.8 °F 79% 30.20 in 3.0 mi East 4.6 mph - N/A Snow Light Snow
10:33 AM 14.0 °F 0.5 °F 8.6 °F 79% 30.20 in 7.0 mi East 11.5 mph - N/A   Overcast
10:53 AM 15.8 °F 2.7 °F 6.8 °F 68% 30.20 in 7.0 mi East 11.5 mph - N/A   Overcast
11:14 AM 15.8 °F 4.2 °F 6.8 °F 68% 30.20 in 7.0 mi ENE 9.2 mph - N/A   Overcast
11:33 AM 15.8 °F - 8.6 °F 73% 30.19 in 4.0 mi Calm Calm - N/A   Haze
11:53 AM 15.8 °F - 6.8 °F 68% 30.19 in 10.0 mi Calm Calm - N/A   Mostly Cloudy
12:14 PM 15.8 °F - 5.0 °F 62% 30.19 in 10.0 mi Calm Calm - N/A   Scattered Clouds
12:33 PM 15.8 °F - 6.8 °F 68% 30.19 in 10.0 mi Calm Calm - N/A   Scattered Clouds
12:53 PM 15.8 °F - 6.8 °F 68% 30.19 in 10.0 mi Calm Calm - N/A   Mostly Cloudy
1:14 PM 15.8 °F - 6.8 °F 68% 30.19 in 10.0 mi Calm Calm - N/A   Mostly Cloudy
1:33 PM 15.8 °F - 6.8 °F 68% 30.19 in 10.0 mi Calm Calm - N/A   Mostly Cloudy
1:53 PM 15.8 °F - 6.8 °F 68% 30.18 in 10.0 mi Calm Calm - N/A   Scattered Clouds
2:14 PM 15.8 °F - 6.8 °F 68% 30.17 in 10.0 mi Calm Calm - N/A   Clear
2:33 PM 15.8 °F - 6.8 °F 68% 30.17 in 10.0 mi Calm Calm - N/A   Clear
2:53 PM 15.8 °F - 6.8 °F 68% 30.16 in 10.0 mi Calm Calm - N/A   Clear
3:13 PM 15.8 °F - 6.8 °F 68% 30.15 in 10.0 mi Calm Calm - N/A   Clear
3:33 PM 15.8 °F - 6.8 °F 68% 30.15 in 10.0 mi Calm Calm - N/A   Clear
3:54 PM 15.8 °F - 6.8 °F 68% 30.15 in 10.0 mi Calm Calm - N/A   Clear
4:13 PM 15.8 °F - 6.8 °F 68% 30.14 in 10.0 mi Calm Calm - N/A   Clear
4:33 PM 15.8 °F - 6.8 °F 68% 30.13 in 10.0 mi Calm Calm - N/A   Clear
4:53 PM 15.8 °F - 6.8 °F 68% 30.13 in 10.0 mi Calm Calm - N/A   Clear
5:13 PM 15.8 °F - 6.8 °F 68% 30.13 in 10.0 mi Calm Calm - N/A   Clear
5:33 PM 15.8 °F - 6.8 °F 68% 30.12 in 10.0 mi Calm Calm - N/A   Clear
5:54 PM 15.8 °F - 6.8 °F 68% 30.11 in 10.0 mi Calm Calm - N/A   Clear
6:13 PM 15.8 °F - 6.8 °F 68% 30.11 in 10.0 mi Calm Calm - N/A   Clear
6:33 PM 15.8 °F - 5.0 °F 62% 30.11 in 10.0 mi Calm Calm - N/A   Clear
6:54 PM 14.0 °F - 6.8 °F 73% 30.11 in 10.0 mi Calm Calm - N/A   Clear
7:13 PM 14.0 °F - 6.8 °F 73% 30.11 in 10.0 mi Calm Calm - N/A   Clear
7:33 PM 12.2 °F - 6.8 °F 79% 30.11 in 10.0 mi Calm Calm - N/A   Clear
7:53 PM 12.2 °F - 6.8 °F 79% 30.10 in 10.0 mi Calm Calm - N/A   Clear
8:13 PM 12.2 °F - 6.8 °F 79% 30.10 in 10.0 mi Calm Calm - N/A   Clear
8:33 PM 10.4 °F - 5.0 °F 79% 30.09 in 10.0 mi Calm Calm - N/A   Clear
8:53 PM 12.2 °F - 6.8 °F 79% 30.09 in 10.0 mi Calm Calm - N/A   Clear
9:13 PM 12.2 °F - 6.8 °F 79% 30.08 in 10.0 mi Calm Calm - N/A   Clear
9:34 PM 12.2 °F - 6.8 °F 79% 30.08 in 10.0 mi Calm Calm - N/A   Clear
9:53 PM 12.2 °F - 6.8 °F 79% 30.07 in 10.0 mi Calm Calm - N/A   Clear
10:13 PM 10.4 °F - 6.8 °F 85% 30.06 in 10.0 mi Calm Calm - N/A   Clear
10:34 PM 10.4 °F - 6.8 °F 85% 30.04 in 10.0 mi Calm Calm - N/A   Scattered Clouds
10:53 PM 12.2 °F - 6.8 °F 79% 30.04 in 10.0 mi Calm Calm - N/A   Scattered Clouds
11:13 PM 12.2 °F - 6.8 °F 79% 30.03 in 10.0 mi Calm Calm - N/A   Clear
11:34 PM 10.4 °F - 6.8 °F 85% 30.02 in 10.0 mi Calm Calm - N/A   Clear
11:53 PM 10.4 °F - 6.8 °F 85% 30.01 in 10.0 mi Calm Calm - N/A   Clear